Tracking 31027 objects as of 19-Jul-2025
HD Live streaming from Space Station
objects crossing your sky now

IRIDIUM 33 DEB

Track IRIDIUM 33 DEB now!
10-day predictions


NORAD ID: 34525
Int'l Code: 1997-051HS
Perigee: 755.6 km
Apogee: 759.9 km
Inclination: 86.4 °
Period: 99.8 minutes
Semi major axis: 7128 km
RCS: 0.0234 m2 (small)
Launch date: September 14, 1997
Source: United States (US)
Launch site: TYURATAM MISSILE AND SPACE COMPLEX (TTMTR)

Note: This is SATELLITE DEBRIS
Your satellite tracking list
Your tracking list is empty




NASA's NSSDC Master Catalog

Two Line Element Set (TLE):
1 34525U 97051HS  25199.52508743  .00000838  00000-0  24764-3 0  9996
2 34525  86.3734 109.6737 0003018 185.9726 348.4269 14.42386505859652
Source of the keplerian elements: AFSPC